Temp
-13 -12 -12 -12 -12 -12 -13 -13 -13 -13 -13 -14 -15 -15 -15 -14 -14 -14 -14 -14 -13 -13 -13 -13 -13 -13 -12 -12 -12 -12 -12 -12 -13 -13 -13 -13 -13 -14 -14 -15 -14 -13 -13 -14
-13 -13 -11 -13 -12 -13 -13 -13 -14 -13 -14 -14 -15 -16 -15 -14 -15 -14 -14 -14 -14 -14 -14 -14 -14 -13 -13 -12 -12 -12 -12 -12 -12 -13 -14 -13 -13 -13 -14 -15 -15 -14 -14 -14
-13 -12 -12 -12 -12 -13 -13 -13 -14 -14 -14 -15 -14 -16 -16 -14 -14 -14 -14 -14 -14 -14 -14 -14 -14 -14 -13 -13 -14 -15 -16 -17 -16 -16 -15 -16 -15 -14 -14 -14 -15 -15 -15 -15
-13 -12 -12 -12 -12 -13 -14 -13 -14 -14 -14 -15 -15 -15 -18 -16 -15 -15 -15 -15 -15 -15 -14 -15 -15 -15 -15 -17 -18 -17 -17 -17 -18 -18 -18 -18 -17 -17 -15 -15 -15 -15 -14 -15
-13 -12 -13 -12 -12 -13 -13 -14 -14 -15 -15 -15 -16 -16 -19 -17 -15 -16 -16 -15 -15 -15 -15 -16 -16 -18 -18 -17 -17 -17 -17 -17 -17 -18 -19 -18 -19 -18 -17 -16 -15 -13 -14 -15
-13 -13 -13 -13 -13 -13 -14 -14 -15 -15 -16 -16 -16 -16 -18 -17 -16 -16 -16 -16 -15 -15 -16 -17 -19 -18 -18 -17 -18 -18 -18 -17 -17 -17 -18 -18 -19 -19 -17 -17 -16 -13 -13 -15
-14 -14 -13 -13 -13 -13 -14 -15 -16 -16 -16 -17 -16 -16 -17 -16 -16 -16 -16 -16 -15 -16 -17 -18 -18 -18 -18 -18 -18 -18 -19 -19 -19 -19 -19 -19 -18 -19 -18 -17 -16 -15 -12 -15
-14 -14 -14 -14 -14 -14 -14 -16 -16 -16 -17 -18 -18 -17 -18 -17 -16 -16 -16 -16 -16 -17 -18 -19 -19 -19 -18 -18 -18 -18 -19 -19 -20 -20 -20 -19 -19 -19 -18 -17 -17 -16 -14 -14
-15 -15 -14 -15 -14 -15 -14 -16 -17 -17 -17 -17 -18 -17 -18 -16 -17 -16 -16 -17 -17 -18 -20 -19 -20 -18 -17 -19 -19 -19 -20 -21 -21 -21 -21 -20 -20 -19 -18 -17 -16 -15 -14 -14
-16 -16 -15 -15 -15 -15 -15 -16 -17 -17 -18 -17 -18 -18 -20 -17 -17 -17 -17 -17 -18 -20 -20 -20 -19 -18 -18 -18 -19 -19 -20 -21 -21 -21 -21 -20 -20 -20 -18 -17 -17 -16 -15 -14
-16 -16 -15 -15 -15 -16 -16 -17 -18 -18 -17 -18 -18 -20 -17 -17 -18 -17 -17 -17 -19 -20 -20 -20 -19 -18 -19 -18 -19 -20 -20 -20 -21 -21 -21 -20 -19 -18 -18 -18 -17 -15 -14 -15
-17 -17 -16 -17 -15 -16 -16 -17 -18 -18 -18 -19 -19 -18 -18 -17 -17 -17 -18 -18 -20 -20 -20 -20 -19 -18 -19 -18 -19 -19 -20 -20 -20 -20 -20 -19 -18 -19 -17 -16 -17 -15 -15 -16
-17 -17 -16 -16 -16 -16 -17 -17 -18 -18 -19 -19 -19 -19 -19 -18 -18 -18 -18 -19 -20 -20 -21 -20 -20 -19 -19 -19 -18 -19 -19 -19 -19 -19 -19 -19 -19 -18 -17 -17 -16 -16 -16 -15
-17 -17 -17 -17 -16 -16 -18 -18 -19 -19 -19 -19 -19 -19 -19 -19 -18 -19 -19 -20 -21 -20 -20 -20 -20 -19 -19 -19 -18 -18 -18 -19 -18 -18 -18 -18 -18 -18 -18 -17 -17 -17 -16 -16
-17 -17 -18 -17 -17 -17 -18 -19 -19 -20 -20 -19 -20 -19 -19 -19 -19 -19 -19 -21 -21 -20 -21 -21 -20 -20 -19 -19 -19 -18 -18 -18 -18 -18 -18 -18 -18 -18 -18 -18 -17 -17 -17 -17
-18 -18 -18 -18 -18 -18 -18 -19 -20 -20 -20 -20 -20 -20 -19 -20 -19 -19 -20 -20 -21 -21 -21 -21 -20 -20 -20 -20 -19 -18 -18 -18 -18 -18 -17 -17 -17 -17 -17 -17 -17 -17 -17 -17
-18 -18 -19 -19 -19 -19 -19 -20 -20 -21 -21 -20 -20 -20 -20 -20 -20 -20 -20 -20 -21 -21 -21 -21 -20 -20 -20 -20 -19 -19 -18 -18 -18 -17 -17 -17 -17 -17 -16 -17 -16 -16 -16 -16
-18 -19 -20 -20 -19 -19 -20 -21 -22 -22 -21 -21 -21 -21 -21 -21 -21 -20 -21 -21 -21 -21 -21 -21 -20 -20 -20 -20 -20 -19 -19 -17 -18 -18 -18 -18 -18 -17 -17 -17 -17 -16 -16 -16
-19 -20 -20 -20 -20 -20 -21 -22 -22 -22 -21 -21 -21 -21 -21 -21 -21 -21 -21 -21 -21 -21 -21 -21 -20 -21 -20 -20 -20 -20 -19 -18 -18 -18 -17 -17 -17 -17 -17 -17 -17 -16 -16 -16
-20 -20 -20 -21 -21 -21 -21 -22 -22 -22 -22 -22 -22 -22 -22 -22 -22 -21 -21 -21 -21 -22 -22 -21 -21 -20 -20 -20 -20 -19 -20 -19 -18 -18 -17 -17 -17 -16 -16 -17 -16 -16 -15 -15
-20 -21 -21 -22 -22 -22 -22 -23 -23 -22 -22 -22 -22 -22 -22 -22 -22 -22 -22 -22 -22 -22 -22 -21 -22 -21 -20 -20 -19 -19 -19 -20 -20 -19 -18 -18 -17 -17 -17 -17 -17 -16 -17 -16
-21 -22 -22 -22 -22 -22 -23 -23 -23 -23 -22 -22 -22 -23 -23 -23 -23 -23 -23 -23 -23 -23 -23 -22 -22 -22 -21 -20 -20 -19 -19 -19 -20 -20 -19 -18 -18 -18 -18 -18 -18 -18 -18 -17
-22 -22 -22 -23 -23 -24 -23 -23 -23 -23 -23 -23 -23 -23 -23 -23 -24 -24 -24 -24 -24 -24 -24 -24 -23 -22 -22 -21 -20 -20 -19 -19 -20 -20 -20 -19 -19 -19 -18 -18 -18 -18 -17 -17
-22 -23 -23 -24 -24 -24 -24 -23 -23 -23 -23 -23 -23 -23 -24 -24 -25 -25 -25 -25 -25 -25 -25 -25 -24 -23 -23 -22 -22 -21 -20 -20 -20 -20 -20 -20 -20 -19 -19 -18 -18 -18 -18 -17
-23 -24 -24 -24 -24 -24 -23 -23 -23 -23 -23 -23 -24 -24 -25 -25 -25 -26 -26 -26 -26 -26 -25 -25 -25 -24 -23 -23 -22 -22 -22 -21 -21 -21 -20 -20 -20 -19 -19 -19 -18 -18 -18 -18
-24 -24 -25 -24 -24 -24 -23 -24 -23 -23 -24 -24 -25 -26 -26 -26 -27 -27 -27 -27 -27 -27 -26 -26 -25 -24 -24 -24 -23 -22 -22 -22 -21 -21 -21 -21 -20 -20 -20 -20 -19 -19 -18 -18
Height
5749 5750 5749 5749 5749 5748 5748 5746 5745 5745 5743 5741 5739 5737 5735 5733 5732 5729 5726 5723 5719 5716 5712 5708 5705 5703 5701 5701 5699 5698 5693 5696 5693 5694 5699 5704 5712 5718 5724 5728 5736 5744 5749 5754
5742 5742 5743 5742 5741 5741 5740 5739 5738 5737 5735 5733 5731 5730 5726 5724 5723 5720 5717 5713 5707 5703 5700 5696 5690 5685 5681 5677 5671 5670 5664 5665 5665 5664 5665 5675 5685 5696 5706 5714 5722 5730 5738 5744
5737 5735 5737 5736 5735 5734 5733 5732 5731 5730 5728 5727 5722 5718 5713 5712 5711 5709 5706 5701 5696 5691 5686 5679 5671 5664 5658 5650 5642 5637 5632 5630 5627 5627 5634 5638 5651 5665 5680 5692 5703 5712 5724 5732
5729 5729 5729 5729 5727 5727 5725 5724 5723 5722 5721 5720 5717 5716 5712 5703 5701 5699 5693 5688 5683 5679 5673 5663 5655 5645 5637 5629 5624 5619 5615 5611 5609 5606 5607 5614 5622 5630 5651 5672 5688 5697 5710 5719
5721 5723 5723 5721 5720 5720 5717 5716 5715 5713 5711 5710 5711 5708 5706 5696 5689 5688 5684 5679 5674 5668 5660 5650 5638 5626 5619 5612 5607 5598 5593 5589 5590 5587 5587 5593 5601 5615 5633 5647 5667 5680 5692 5704
5713 5715 5713 5712 5713 5711 5710 5708 5707 5705 5703 5702 5700 5700 5697 5691 5685 5681 5675 5669 5663 5657 5645 5633 5624 5614 5605 5595 5585 5580 5573 5568 5563 5562 5566 5573 5584 5601 5616 5634 5651 5668 5671 5689
5705 5705 5705 5705 5704 5703 5701 5700 5700 5698 5695 5697 5690 5690 5688 5681 5679 5674 5667 5660 5652 5642 5631 5623 5614 5604 5595 5583 5572 5564 5551 5545 5536 5535 5539 5551 5566 5582 5602 5623 5637 5652 5659 5672
5694 5695 5696 5696 5696 5694 5693 5692 5691 5690 5691 5691 5684 5681 5675 5672 5671 5665 5657 5648 5639 5631 5622 5615 5605 5594 5582 5568 5559 5548 5535 5526 5516 5512 5518 5531 5551 5565 5584 5606 5624 5637 5637 5650
5685 5684 5687 5687 5685 5685 5685 5682 5683 5682 5682 5678 5678 5674 5668 5663 5660 5656 5649 5641 5631 5621 5612 5605 5599 5588 5574 5564 5552 5540 5527 5515 5505 5499 5503 5517 5535 5557 5574 5596 5616 5633 5638 5647
5676 5673 5678 5677 5676 5675 5674 5675 5675 5674 5674 5670 5669 5667 5664 5658 5654 5648 5641 5632 5623 5613 5606 5600 5592 5584 5570 5559 5549 5540 5527 5518 5510 5504 5508 5516 5536 5555 5575 5596 5610 5623 5636 5650
5665 5666 5667 5666 5667 5665 5666 5664 5666 5666 5665 5663 5662 5658 5654 5650 5647 5640 5632 5622 5614 5607 5602 5596 5587 5579 5567 5557 5551 5543 5534 5527 5522 5520 5524 5535 5546 5560 5577 5591 5599 5580 5611 5632
5655 5655 5654 5657 5657 5656 5656 5657 5657 5656 5655 5655 5654 5653 5645 5641 5639 5631 5623 5615 5609 5602 5597 5591 5583 5575 5565 5558 5554 5549 5542 5539 5537 5537 5542 5552 5562 5570 5576 5588 5599 5582 5614 5615
5645 5644 5645 5645 5648 5646 5646 5648 5648 5647 5646 5647 5645 5644 5638 5631 5630 5624 5617 5609 5603 5596 5593 5588 5581 5573 5564 5556 5554 5552 5547 5547 5548 5549 5553 5558 5566 5574 5578 5582 5589 5600 5609 5616
5633 5635 5636 5637 5637 5639 5638 5637 5639 5638 5639 5637 5638 5634 5630 5626 5622 5616 5609 5603 5597 5592 5589 5584 5578 5572 5563 5555 5553 5553 5550 5550 5553 5556 5560 5563 5568 5572 5577 5585 5589 5591 5599 5609
5622 5625 5627 5628 5627 5628 5627 5628 5628 5630 5630 5629 5629 5626 5620 5619 5616 5610 5603 5597 5593 5588 5585 5582 5577 5571 5564 5556 5552 5553 5553 5552 5554 5557 5560 5564 5568 5571 5576 5581 5584 5590 5596 5604
5611 5614 5618 5618 5617 5617 5617 5616 5620 5621 5621 5620 5620 5616 5615 5611 5608 5603 5598 5592 5588 5583 5580 5578 5574 5569 5564 5556 5551 5545 5550 5552 5554 5557 5559 5562 5566 5570 5574 5578 5582 5586 5591 5594
5601 5605 5607 5608 5606 5607 5606 5610 5611 5613 5612 5612 5611 5608 5606 5604 5600 5597 5592 5587 5583 5579 5574 5573 5571 5567 5564 5557 5551 5547 5546 5546 5550 5553 5556 5559 5562 5565 5569 5573 5576 5581 5584 5588
5593 5596 5598 5598 5597 5597 5598 5602 5602 5605 5604 5603 5602 5600 5598 5597 5592 5591 5586 5581 5577 5574 5571 5567 5565 5563 5561 5556 5550 5546 5544 5544 5544 5545 5548 5551 5553 5555 5559 5565 5568 5568 5574 5578
5584 5586 5588 5588 5589 5590 5592 5594 5596 5596 5596 5595 5593 5592 5591 5588 5585 5584 5580 5575 5571 5567 5566 5562 5560 5556 5558 5555 5550 5545 5542 5542 5542 5541 5543 5545 5543 5544 5550 5556 5558 5559 5565 5568
5575 5577 5579 5578 5580 5582 5581 5587 5587 5587 5587 5587 5584 5583 5581 5579 5578 5574 5571 5567 5564 5561 5559 5556 5555 5553 5550 5550 5549 5546 5542 5540 5540 5541 5542 5539 5539 5543 5547 5548 5551 5554 5559 5562
5566 5567 5569 5571 5573 5573 5575 5579 5579 5580 5582 5577 5577 5575 5572 5570 5569 5566 5562 5559 5556 5554 5553 5550 5547 5548 5546 5546 5546 5545 5543 5539 5539 5538 5539 5537 5538 5540 5543 5546 5547 5550 5553 5556
5559 5560 5562 5564 5565 5567 5573 5571 5573 5573 5570 5570 5569 5566 5563 5560 5557 5555 5551 5549 5547 5545 5544 5543 5541 5541 5541 5539 5540 5541 5541 5539 5538 5537 5537 5538 5538 5539 5541 5543 5545 5548 5548 5550
5549 5552 5556 5559 5560 5564 5564 5566 5565 5564 5563 5561 5558 5557 5553 5549 5546 5543 5540 5539 5537 5536 5536 5534 5533 5532 5532 5533 5532 5533 5534 5535 5535 5535 5534 5535 5535 5537 5537 5539 5541 5543 5546 5549
5543 5547 5549 5553 5555 5558 5558 5558 5558 5556 5554 5551 5548 5545 5542 5538 5534 5531 5529 5527 5526 5526 5526 5526 5525 5524 5523 5524 5525 5526 5527 5529 5529 5529 5529 5530 5532 5533 5534 5536 5537 5537 5541 5544
5539 5541 5545 5547 5551 5551 5550 5551 5549 5546 5543 5541 5537 5533 5529 5526 5522 5519 5517 5516 5515 5515 5515 5517 5517 5517 5517 5516 5516 5517 5518 5521 5523 5524 5525 5526 5526 5527 5529 5530 5533 5534 5535 5537
5534 5539 5542 5542 5545 5544 5543 5541 5539 5537 5534 5530 5526 5522 5518 5514 5511 5508 5507 5506 5505 5504 5506 5508 5509 5510 5511 5511 5510 5509 5510 5512 5515 5517 5519 5520 5521 5522 5523 5525 5526 5528 5530 5531
Wind_Speed
23 24 26 28 26 29 27 30 29 32 33 34 32 34 36 38 37 39 42 45 48 50 54 57 60 62 66 68 70 74 79 79 83 81 80 78 73 65 67 69 64 55 53 47
20 22 24 24 28 30 31 32 32 34 35 37 37 32 38 39 38 40 41 45 49 53 55 59 63 69 74 78 82 85 91 93 95 94 80 84 83 77 67 71 68 62 57 52
26 28 26 31 30 31 33 35 34 35 36 35 40 34 40 44 40 41 42 47 51 55 59 63 71 77 83 87 84 67 66 60 68 71 75 87 85 81 79 71 73 67 61 56
31 31 30 30 32 33 34 35 35 37 38 35 38 33 24 43 45 42 45 50 53 57 61 69 74 77 73 54 50 55 58 61 56 56 53 85 94 92 83 74 74 73 64 59
34 31 30 29 33 34 38 37 37 38 38 39 33 37 14 38 47 43 47 51 54 59 65 68 63 56 50 50 55 54 54 56 55 58 59 61 86 89 87 83 76 81 68 61
39 35 33 34 35 37 37 38 38 38 39 38 37 34 30 38 43 44 48 51 56 61 63 53 47 52 52 62 55 48 58 60 62 63 61 65 68 76 88 84 79 74 70 63
38 37 38 38 38 37 38 38 35 39 36 25 38 35 36 42 41 44 47 53 59 63 59 41 43 51 52 61 52 56 53 51 53 56 60 67 64 65 85 82 79 76 69 70
41 41 40 41 37 40 39 36 36 36 32 28 35 40 41 43 41 45 50 55 60 58 54 34 43 51 60 47 46 47 45 38 40 43 51 58 64 61 76 81 81 78 80 72
42 42 42 36 38 40 39 37 34 35 35 37 35 38 34 43 41 44 47 52 54 52 42 39 44 49 61 43 42 40 33 27 23 21 41 45 57 62 70 76 76 73 74 61
40 43 41 41 40 42 40 37 33 34 33 36 30 30 29 39 39 42 45 52 49 37 37 38 42 46 53 33 33 29 20 16 7 6 22 35 43 53 63 69 72 67 62 61
39 40 41 41 42 41 40 37 35 35 36 34 33 27 37 38 36 40 45 50 43 33 36 37 36 41 41 20 22 17 11 4 2 15 25 33 43 50 56 59 65 55 48 62
39 38 43 39 41 39 39 38 37 35 37 32 30 34 37 37 34 40 42 44 37 31 33 32 36 38 33 17 16 4 3 6 13 18 24 31 36 37 46 49 49 42 36 29
40 47 46 43 37 39 38 39 39 37 33 29 31 28 34 37 34 37 41 38 34 32 31 29 30 31 30 12 14 9 7 9 13 20 24 28 34 31 35 39 43 42 41 44
39 39 42 40 38 38 37 39 38 35 31 31 28 33 31 32 34 35 38 31 31 35 32 29 30 29 30 18 16 19 12 14 15 18 21 27 31 32 29 32 35 34 38 43
40 42 42 40 38 40 39 39 39 33 30 30 29 29 31 31 33 33 36 31 28 34 34 28 22 23 28 24 14 23 20 19 20 22 24 27 28 31 32 35 36 39 41 43
40 43 40 40 38 39 39 39 35 29 28 29 30 26 27 30 31 30 31 28 27 29 34 27 23 24 25 20 12 17 26 25 23 24 28 31 31 32 34 36 37 40 42 48
42 41 40 40 42 40 40 34 32 28 28 29 28 26 27 29 31 29 29 28 29 27 34 33 24 22 22 22 17 10 23 37 32 31 31 33 37 41 42 43 40 46 51 54
42 40 40 39 40 41 39 30 30 26 28 27 25 26 28 28 29 28 30 29 29 30 32 34 27 24 17 22 22 14 5 22 43 35 32 35 39 50 48 47 42 44 46 49
41 39 39 38 36 39 35 28 26 26 27 26 25 28 29 28 31 31 30 28 30 33 32 34 30 28 20 14 19 17 10 7 19 22 25 26 15 29 40 30 30 33 36 41
39 38 36 35 37 35 35 23 25 26 28 25 27 30 30 31 32 35 33 33 31 32 33 35 29 32 26 16 13 18 17 9 10 19 28 22 19 26 28 17 19 19 27 40
37 33 33 35 35 34 29 22 24 26 27 28 28 30 32 34 35 36 34 34 32 32 35 33 33 28 29 23 18 15 16 14 10 12 15 12 13 17 18 19 21 23 17 15
32 30 32 33 31 30 21 24 25 26 28 29 31 32 36 38 38 37 34 33 33 33 35 35 34 32 26 27 24 20 18 17 13 13 14 21 18 18 18 17 16 19 19 19
31 30 27 29 26 20 22 23 25 27 30 31 34 36 39 40 39 37 35 35 34 34 35 35 36 34 28 26 27 25 23 22 19 14 17 18 15 15 15 16 22 20 17 20
26 24 25 21 21 20 23 24 26 29 31 34 38 40 40 39 39 39 38 38 37 35 37 34 35 30 27 27 26 27 26 26 23 19 16 17 21 18 18 19 19 19 22 22
22 23 18 21 18 22 25 25 29 31 35 38 40 39 38 39 40 40 39 38 36 36 37 33 33 28 25 23 24 26 25 25 23 22 20 20 20 23 21 19 20 21 21 22
20 16 17 19 19 22 24 26 31 35 38 38 37 38 38 38 36 35 32 31 30 33 33 31 31 28 24 21 21 23 24 27 25 23 22 23 23 21 22 24 24 24 23 23
Wind_Direction
267 274 275 280 279 275 275 280 283 279 282 283 283 284 282 284 287 287 285 288 287 287 287 288 288 287 282 278 274 274 271 267 275 271 265 260 256 245 243 245 249 251 255 257
275 278 290 286 284 279 277 277 277 283 282 285 282 284 281 282 283 281 284 285 288 290 292 295 296 292 289 285 284 280 280 274 269 268 262 258 254 248 238 238 242 247 250 253
278 278 288 288 287 285 282 280 281 282 282 283 285 294 291 287 286 286 292 294 295 300 303 305 305 302 297 295 292 288 285 270 270 262 250 232 229 234 237 232 232 237 241 247
273 277 282 285 288 287 284 286 281 281 283 281 287 286 288 288 289 296 300 302 305 306 310 310 306 302 299 290 282 281 279 267 259 266 259 235 228 225 221 224 226 230 234 238
268 270 278 282 286 285 283 282 282 281 280 281 284 281 283 292 296 301 304 305 307 311 310 310 305 294 295 293 291 285 276 264 256 257 256 244 235 229 221 214 217 226 226 232
267 271 272 280 283 281 282 281 282 282 280 281 279 285 288 288 296 302 305 308 310 310 312 311 305 303 303 305 295 291 287 279 271 261 252 238 237 235 224 215 214 222 216 228
265 267 270 278 278 278 280 281 280 283 285 287 277 282 289 289 297 301 307 309 310 316 313 301 304 303 303 313 297 298 294 286 271 257 246 233 229 229 224 216 211 215 219 222
266 268 269 275 278 277 278 276 273 273 270 264 282 289 293 294 302 305 310 312 314 315 310 298 311 313 316 316 305 309 301 293 284 260 240 229 222 221 215 214 213 214 220 208
262 265 268 273 275 276 278 272 273 272 275 277 282 288 299 294 307 309 311 312 314 313 300 291 307 318 319 312 319 316 312 307 293 262 229 217 211 216 210 212 212 217 226 218
258 265 271 273 275 274 275 275 270 270 271 275 281 287 283 303 306 311 310 314 315 305 298 298 312 316 319 314 323 321 328 310 303 177 189 182 188 200 203 208 213 210 223 228
257 264 269 271 274 271 272 269 269 270 273 274 282 287 293 300 308 309 313 316 318 301 299 312 320 325 321 308 324 322 348 353 126 154 160 171 178 187 200 212 220 219 210 211
259 263 268 268 269 272 274 271 267 266 271 269 275 284 292 297 306 311 318 316 315 302 311 322 325 331 326 297 312 323 98 128 140 145 156 170 181 195 204 212 217 225 228 220
259 260 266 267 269 273 277 274 267 270 265 272 277 291 295 301 310 311 318 310 305 302 311 325 328 328 339 287 270 256 167 180 174 172 173 184 192 199 208 216 215 220 218 218
259 262 263 263 269 278 276 272 266 265 264 266 278 280 294 305 307 312 318 298 299 301 303 319 328 334 346 350 239 255 201 196 203 201 192 197 203 218 206 213 222 225 223 226
254 257 260 265 272 275 271 266 263 261 259 267 274 284 292 303 307 315 318 292 295 295 297 311 325 339 341 353 235 240 234 214 210 212 211 212 217 220 221 223 220 219 224 227
252 256 263 266 269 269 267 262 259 254 261 268 273 288 298 302 308 318 319 294 289 297 298 301 314 331 347 354 353 212 235 225 219 226 220 219 222 230 229 228 232 237 232 231
253 259 261 264 263 263 262 257 251 252 260 268 279 292 298 303 307 318 316 303 280 289 299 299 296 316 334 360 359 1 220 230 225 228 232 234 235 231 235 238 237 241 239 238
256 255 257 259 264 260 256 243 249 256 262 270 284 292 296 301 308 313 313 312 286 282 289 299 288 304 325 331 342 354 288 231 245 244 233 235 243 235 234 237 244 235 237 236
249 254 259 256 260 256 251 243 247 255 266 277 287 292 298 305 307 312 310 313 302 273 276 291 283 287 299 317 336 344 350 295 215 216 205 195 182 224 218 239 228 225 236 237
250 252 253 252 247 245 248 245 251 260 269 281 288 294 300 305 306 307 309 311 305 277 269 276 287 276 284 289 312 321 326 330 254 242 220 196 203 200 202 199 210 196 210 221
248 248 246 244 240 242 249 248 257 265 279 284 290 295 300 302 301 301 302 302 295 280 261 265 279 276 271 273 266 286 301 311 305 260 248 211 196 192 199 209 195 202 218 215
242 238 238 237 235 239 244 253 264 275 281 288 293 297 299 299 298 296 294 289 283 274 264 264 266 275 270 264 254 249 261 273 283 272 253 230 222 225 229 219 216 216 210 218
231 229 228 232 235 243 251 262 270 279 286 292 296 298 297 295 292 290 285 280 275 269 261 265 266 271 268 262 254 250 246 260 269 271 243 235 214 218 225 229 224 217 221 222
229 228 226 228 240 248 259 268 279 286 292 296 296 295 293 290 287 285 281 275 270 269 260 266 263 267 274 267 262 255 249 250 257 263 260 238 227 223 229 228 230 226 226 231
223 220 224 239 247 261 270 284 288 294 296 295 293 293 292 290 289 286 282 279 274 264 261 261 263 260 268 273 267 257 253 253 254 256 252 251 243 232 230 232 233 230 228 230
216 219 233 249 260 273 286 292 296 296 294 293 293 293 292 290 288 286 284 281 275 263 261 258 262 257 254 268 273 260 254 255 256 259 258 252 243 240 240 236 234 238 236 235